Погода в Бараниковке

Украина / Луганская область     49°13′37″N   38°18′17″E
темп.,
°C
ветер,
м/с
пор.,
м/с
влажн.,
%
обл.,
%
осадки,
мм/ч
давл.,
гПа
погр.,
м
16 сентября, чт
чт1600:00+12с33428 0.0 101631
03:00+10ссз334899 0.0 101624
06:00+9ссз335289 0.0 101730
09:00+15с3542100 0.0 1017427
12:00+19с44325 0.0 10171625
15:00+20с34285 0.0 10161893
18:00+18с35351 0.0 1017103
21:00+13ссв33430 0.0 101830
17 сентября, пт
пт1700:00+11св22440 0.0 101912
03:00+9вюв115154 0.0 101910
06:00+8вюв11575 0.0 101910
09:00+15ю1140100 0.0 1018301
12:00+20юз23295 0.0 10171514
15:00+21зюз332547 0.0 10151789
18:00+18з113258 0.0 101511
21:00+17в1132100 0.0 101511
18 сентября, сб
сб1800:00+15юв2236100 0.0 101424
03:00+15вюв223799 0.0 101431
06:00+15всв4737100 0.0 1015222
09:00+17в783365 0.0 1015544
12:00+22вюв66266 0.0 10141354
15:00+24юв562491 0.0 10132269
18:00+22в5733100 0.0 1012261
21:00+17в81341100 0.0 1014391
19 сентября, вс
вс1900:00+15вюв61145100 0.0 1014363
03:00+15вюв51047100 0.0 1013312
06:00+14в5855100 0.1 1013366
09:00+12в5969100 0.6 1013312
12:00+17в3854100 0.1 1012456
15:00+19зюз0159100 0.1 101156
18:00+14вюв1187100 1.8 101168
21:00+14вюв2597100 6.0 1010196
20 сентября, пн
пн2000:00+15юв259596 0.8 1009294
03:00+14юв239878 0.9 100869
06:00+14ю229663 0.2 100851
09:00+17юз4681100 0.6 1008497
12:00+21юз5655100 0.1 10081046
15:00+23зюз694094 0.4 10082509
18:00+20з234784 0.0 100840
21:00+16з3768100 0.1 1009257